User: anonymous   Login
Location: Unspecified
(0.0000°N, 0.0000°E)
Time: 22:47:57
(UTC+00:00)
Language:

ASTRA 1KR - Orbit

View from above orbital plane
View from above orbital plane
View from above satellite
View from above satellite

Ground track
Ground track

The orbit data is extracted from the following two-line orbital elements,

1 29055U 06012A   17179.32476486 +.00000101 +00000-0 +00000-0 0  9997
2 29055 000.0841 300.5000 0001557 102.1484 010.0620 01.00278860040894
Epoch (UTC): 28 June 2017 07:47:39
Eccentricity: 0.0001557
inclination: 0.0841°
perigee height: 35777 km
apogee height: 35791 km
right ascension of ascending node: 300.5000°
argument of perigee: 102.1484°
revolutions per day: 1.00278860
mean anomaly at epoch: 10.0620°
orbit number at epoch: 4089

The dashed part of the orbit path shows where the satellite is in the earth's shadow,  

DLR